[[{"header":{"parameterUnit":"m.s-1","parameterCategory":1,"la1":30.2991,"la2":30.254,"lo1":-89.0895,"lo2":-89.0444,"dy":0.0017,"dx":0.0017,"nx":28,"ny":28,"refTime":"2024-08-18T21:00:00:Z","depth":0,"parameterNumber":2,"parameterNumberName":"U-component_of_WINDS"},"data":[0,0,0,0,0,0,0,0,0,0,0,0,0,0,0,0,0,0,0,0,0,0,0,0,0,0,0,0,0,0,0,0,0,0,0,0,0,0,0,0,0,0,0,0,0,0,0,0,0,0,0,0,0,0,0,0,0,0,2.8842,2.8842,0,2.8847,2.8847,2.8847,2.8859,2.8859,2.8859,2.8859,2.8861,2.8861,2.8861,0,0,0,0,0,0,0,0,0,0,0,0,0,2.8841,2.8841,2.8842,2.8842,2.8842,2.8847,2.8847,2.8847,2.8858,2.8859,2.8859,2.8859,2.8861,2.8861,2.8861,0,0,0,0,0,0,0,0,0,0,0,0,0,2.8843,2.8841,2.8842,2.8849,2.8849,2.8847,2.8847,2.8847,2.8858,2.8859,2.8859,2.886,2.8861,2.8861,2.8861,2.8852,0,0,2.886,2.886,0,0,0,0,0,0,0,0,2.8843,2.8843,2.8848,2.8848,2.8849,2.8853,2.8847,2.8849,2.8858,2.8855,2.8859,2.886,2.8858,2.8858,2.8858,2.8852,2.8852,2.886,2.886,2.886,2.886,0,0,0,0,0,0,0,2.8843,2.8843,2.8844,2.8848,2.8848,2.8851,2.8851,2.8848,2.8854,2.8855,2.8856,2.8857,2.8858,2.8858,2.8858,2.8852,2.886,2.886,2.886,2.8859,2.884,2.884,0,0,0,0,0,0,2.8842,2.8843,2.8844,2.8844,2.8847,2.885,2.8851,2.8851,2.8854,2.8855,2.8856,2.8857,2.8858,2.8858,2.8858,2.8848,2.886,2.8859,2.8859,2.884,2.884,2.8839,0,0,0,0,0,0,2.8842,2.8842,2.8844,2.8844,2.8844,2.885,2.885,2.8851,2.8851,2.8855,2.8856,2.8855,2.8859,2.8858,2.8854,2.8849,2.8859,2.8859,2.8841,2.884,2.884,2.8828,0,0,0,0,0,0,2.8842,2.8842,2.8839,2.8844,2.8844,2.884,2.8849,2.8851,2.8851,2.8852,2.8854,2.8855,2.8859,2.8854,2.8853,2.8848,2.8859,2.8841,2.884,2.884,2.8829,2.8828,2.8826,0,0,0,0,0,2.8842,2.8835,2.8839,2.8839,2.8841,2.8839,2.884,2.8845,2.885,2.8847,2.885,2.8855,2.8849,2.8853,2.8853,2.8848,2.8841,2.8841,2.884,2.883,2.8828,2.8826,0,0,0,0,0,0,2.8827,2.8835,2.884,2.8834,2.8836,2.8841,2.8837,2.8843,2.8842,2.8843,2.8849,2.885,2.8844,2.8846,2.885,2.884,2.8846,2.8845,2.8839,2.8837,2.8836,2.8835,2.8859,0,0,0,0,0,2.8824,2.8823,2.883,2.8824,2.8825,2.8831,2.8831,2.8835,2.8837,2.8838,2.884,2.8841,2.884,2.8839,2.8837,2.883,2.8831,2.8826,2.8825,2.8823,2.8822,2.8819,2.8817,2.8837,2.8837,2.8837,0,0,2.8816,2.882,2.8819,2.8821,2.8823,2.8822,2.8831,2.8829,2.8828,2.8837,2.8833,2.8835,2.8837,2.8831,2.8828,2.8831,2.8817,2.8822,2.8821,2.8821,2.8818,2.8816,2.8815,2.8836,2.8836,2.8836,0,0,2.8801,2.8804,2.88,2.8802,2.8806,2.8811,2.881,2.8815,2.8817,2.8813,2.882,2.8819,2.8816,2.8817,2.8817,2.8805,2.8809,2.8804,2.8796,2.8793,2.8791,2.879,2.8786,2.8784,2.8803,2.8803,2.8803,0,2.879,2.8789,2.8797,2.8795,2.8796,2.8805,2.8801,2.8803,2.8806,2.8806,2.881,2.8808,2.881,2.8805,2.8802,2.8802,2.8801,2.8804,2.8791,2.879,2.8788,2.8785,2.8783,2.8803,2.8803,2.8803,2.8803,0,2.8776,2.8775,2.8771,2.8775,2.8776,2.8773,2.878,2.8779,2.8784,2.8788,2.8785,2.8788,2.8788,2.8787,2.8791,2.8783,2.8785,2.879,2.8797,2.8786,2.8782,2.8781,2.8802,2.8802,2.8802,2.8802,0,0,2.875,2.876,2.8758,2.8761,2.8767,2.8766,2.8764,2.8765,2.8765,2.8767,2.8765,2.8763,2.8769,2.8769,2.8773,2.8771,2.8761,2.8776,2.8776,2.8773,2.8753,2.8749,2.8747,2.8765,2.8765,2.8764,2.8753,0,2.8736,2.8733,2.8741,2.8736,2.8736,2.8746,2.8744,2.8747,2.8751,2.8751,2.8755,2.8754,2.8761,2.8761,2.8759,2.8763,2.8757,2.8764,2.8763,2.8762,2.8762,2.8745,2.8741,2.873,2.8752,2.8751,2.8751,0,2.8718,2.8721,2.8717,2.8724,2.8724,2.8723,2.8725,2.8725,2.8729,2.8733,2.8734,2.874,2.8738,2.8745,2.8742,2.8747,2.8747,2.8749,2.8748,2.8748,2.8756,2.8744,2.8726,2.8725,2.8749,2.8749,2.8749,0,2.87,2.8703,2.8701,2.8703,2.8711,2.871,2.8713,2.8718,2.8719,2.8721,2.8722,2.8723,2.8724,2.8725,2.8731,2.8736,2.8728,2.8735,2.873,2.873,2.8727,2.8727,2.8709,2.8728,2.8728,2.8728,2.8728,0,2.8683,2.868,2.8693,2.8692,2.8689,2.8698,2.8695,2.8699,2.8703,2.8703,2.8711,2.8711,2.8719,2.8719,2.8724,2.8721,2.8721,2.8724,2.8725,2.8723,2.8722,2.8722,2.8723,2.8727,2.8727,2.8728,2.8728,0,2.8662,2.8671,2.8669,2.8679,2.8681,2.8678,2.8686,2.8685,2.869,2.869,2.869,2.8698,2.8699,2.8705,2.8707,2.871,2.8706,2.8708,2.8704,2.8705,2.87,2.87,2.8681,2.8679,2.8699,2.8699,2.8698,0,2.8651,2.8649,2.8658,2.8659,2.8663,2.8664,2.8666,2.8675,2.8676,2.8682,2.868,2.8682,2.8684,2.8684,2.869,2.8692,2.8694,2.8687,2.8694,2.8693,2.8694,2.8694,2.8694,2.8685,2.8685,2.8685,2.8685,0,2.8629,2.8634,2.8637,2.8641,2.8643,2.8647,2.8651,2.8651,2.8661,2.8662,2.8664,2.8666,2.8669,2.867,2.8673,2.8676,2.8682,2.8683,2.8682,2.8679,2.8677,2.8679,2.87,2.8683,2.8683,2.8683,2.8683,2.8683,2.8613,2.8612,2.8619,2.8622,2.8627,2.8631,2.8631,2.8637,2.8639,2.8643,2.8648,2.8649,2.8654,2.8659,2.8662,2.8662,2.8666,2.8664,2.8664,2.8663,2.8662,2.8678,2.8663,2.8663,2.8663,2.8663,2.8663,0,2.8592,2.8598,2.86,2.8607,2.8609,2.8617,2.8622,2.8623,2.8624,2.8629,2.8631,2.8634,2.8636,2.8642,2.8645,2.8645,2.8647,2.8645,2.8645,2.8645,2.8659,2.866,2.8643,2.8643,2.8643,2.8643,2.8643,2.8643,2.8581,2.8581,2.8587,2.8589,2.8595,2.8597,2.8599,2.8603,2.8607,2.861,2.8612,2.8617,2.8623,2.8626,2.8629,2.8631,2.8631,2.8628,2.863,2.8642,2.8644,2.8646,2.8647,2.8628,2.8628,2.8617,2.8617,2.8617]},{"header":{"parameterUnit":"m.s-1","parameterCategory":1,"la1":30.2991,"la2":30.254,"lo1":-89.0895,"lo2":-89.0444,"dy":0.0017,"dx":0.0017,"nx":28,"ny":28,"refTime":"2024-08-18T21:00:00:Z","depth":0,"parameterNumber":3,"parameterNumberName":"V-component_of_WINDS"},"data":[0,0,0,0,0,0,0,0,0,0,0,0,0,0,0,0,0,0,0,0,0,0,0,0,0,0,0,0,0,0,0,0,0,0,0,0,0,0,0,0,0,0,0,0,0,0,0,0,0,0,0,0,0,0,0,0,0,0,-0.8252,-0.8252,0,-0.8291,-0.8291,-0.8292,-0.829,-0.8289,-0.8288,-0.8288,-0.8327,-0.8328,-0.833,0,0,0,0,0,0,0,0,0,0,0,0,0,-0.8174,-0.8176,-0.8252,-0.8252,-0.8253,-0.8291,-0.8291,-0.8292,-0.829,-0.8289,-0.8288,-0.8288,-0.8326,-0.8328,-0.833,0,0,0,0,0,0,0,0,0,0,0,0,0,-0.821,-0.8176,-0.8251,-0.8256,-0.8257,-0.8291,-0.8291,-0.8292,-0.829,-0.8289,-0.8288,-0.8287,-0.8326,-0.8328,-0.833,-0.8362,0,0,-0.8338,-0.8339,0,0,0,0,0,0,0,0,-0.8208,-0.8213,-0.8255,-0.8256,-0.8257,-0.8285,-0.8279,-0.8315,-0.829,-0.8277,-0.8288,-0.8287,-0.8313,-0.8317,-0.8326,-0.8364,-0.8365,-0.8338,-0.8339,-0.834,-0.8341,0,0,0,0,0,0,0,-0.8206,-0.8211,-0.8267,-0.8256,-0.8257,-0.8256,-0.826,-0.8286,-0.83,-0.8278,-0.8278,-0.8283,-0.8314,-0.8324,-0.8327,-0.8366,-0.8338,-0.834,-0.8341,-0.8342,-0.8434,-0.8435,0,0,0,0,0,0,-0.8202,-0.8209,-0.8266,-0.8268,-0.823,-0.8258,-0.8263,-0.8276,-0.8299,-0.8302,-0.8284,-0.8283,-0.832,-0.8324,-0.8328,-0.8368,-0.834,-0.8342,-0.8344,-0.8433,-0.8434,-0.8435,0,0,0,0,0,0,-0.8201,-0.8207,-0.8264,-0.8239,-0.8246,-0.8261,-0.8276,-0.8278,-0.8288,-0.8303,-0.8306,-0.8291,-0.832,-0.8325,-0.8354,-0.837,-0.8343,-0.8346,-0.8432,-0.8433,-0.8435,-0.8448,0,0,0,0,0,0,-0.8198,-0.8207,-0.8219,-0.8239,-0.8247,-0.829,-0.8277,-0.8279,-0.8292,-0.8291,-0.8311,-0.8314,-0.8319,-0.8351,-0.8357,-0.8372,-0.8347,-0.843,-0.8432,-0.8434,-0.8446,-0.8449,-0.8452,0,0,0,0,0,-0.8196,-0.822,-0.8219,-0.8226,-0.8263,-0.829,-0.8295,-0.8302,-0.8293,-0.8306,-0.8316,-0.8313,-0.8367,-0.8354,-0.836,-0.8377,-0.8429,-0.8432,-0.8434,-0.8444,-0.8449,-0.8452,0,0,0,0,0,0,-0.82,-0.8223,-0.8222,-0.8254,-0.8271,-0.829,-0.8306,-0.8306,-0.8324,-0.8323,-0.8329,-0.8334,-0.8364,-0.8373,-0.8358,-0.841,-0.8397,-0.8401,-0.8403,-0.8407,-0.841,-0.8408,-0.8349,0,0,0,0,0,-0.8205,-0.8226,-0.8244,-0.8271,-0.8279,-0.8291,-0.8303,-0.8307,-0.8324,-0.8331,-0.8343,-0.836,-0.8381,-0.8394,-0.8414,-0.8447,-0.8452,-0.8462,-0.8465,-0.8468,-0.8471,-0.8491,-0.8496,-0.8443,-0.8443,-0.8443,0,0,-0.8215,-0.823,-0.8242,-0.8272,-0.8285,-0.8307,-0.8297,-0.832,-0.8336,-0.8334,-0.8363,-0.8373,-0.8392,-0.8424,-0.8439,-0.8433,-0.8487,-0.8471,-0.8473,-0.8475,-0.8494,-0.8499,-0.8504,-0.8444,-0.8444,-0.8444,0,0,-0.8245,-0.8257,-0.8282,-0.8296,-0.8316,-0.8324,-0.833,-0.835,-0.8357,-0.8386,-0.8386,-0.8405,-0.8441,-0.8455,-0.8467,-0.8504,-0.8502,-0.851,-0.8527,-0.8547,-0.8551,-0.8555,-0.8569,-0.8574,-0.8513,-0.8513,-0.8513,0,-0.8254,-0.8287,-0.8294,-0.8318,-0.8331,-0.8332,-0.8357,-0.837,-0.8395,-0.8405,-0.8398,-0.8444,-0.8456,-0.8492,-0.8502,-0.8511,-0.8518,-0.8508,-0.855,-0.8554,-0.8557,-0.8571,-0.8577,-0.8514,-0.8514,-0.8514,-0.8513,0,-0.8299,-0.8322,-0.8339,-0.8365,-0.8381,-0.8405,-0.8416,-0.843,-0.8433,-0.8442,-0.8473,-0.8488,-0.8512,-0.8521,-0.8523,-0.8558,-0.8554,-0.8548,-0.8536,-0.8563,-0.8577,-0.8582,-0.8515,-0.8515,-0.8514,-0.8514,0,0,-0.8332,-0.8363,-0.8369,-0.8382,-0.8405,-0.8423,-0.8448,-0.8472,-0.8486,-0.8503,-0.8525,-0.8556,-0.8551,-0.8565,-0.8569,-0.8586,-0.8616,-0.8578,-0.8579,-0.8586,-0.8658,-0.8663,-0.8669,-0.8615,-0.8616,-0.8617,-0.8657,0,-0.8365,-0.841,-0.8417,-0.8456,-0.8478,-0.848,-0.8501,-0.8518,-0.8528,-0.8548,-0.8558,-0.8581,-0.8572,-0.8581,-0.8597,-0.8609,-0.8631,-0.8606,-0.8636,-0.8637,-0.8633,-0.8676,-0.8681,-0.8717,-0.8662,-0.8663,-0.8663,0,-0.8409,-0.843,-0.8472,-0.8494,-0.8504,-0.8523,-0.8547,-0.8566,-0.8586,-0.8591,-0.8607,-0.861,-0.8636,-0.8622,-0.8659,-0.8642,-0.8655,-0.8663,-0.8664,-0.8668,-0.8653,-0.8682,-0.8729,-0.8735,-0.8671,-0.8671,-0.867,0,-0.8431,-0.8469,-0.85,-0.851,-0.8537,-0.8551,-0.8562,-0.8581,-0.8596,-0.8616,-0.8626,-0.8649,-0.8662,-0.868,-0.8689,-0.8678,-0.8727,-0.8713,-0.8733,-0.8733,-0.8744,-0.8743,-0.8794,-0.875,-0.875,-0.875,-0.8749,0,-0.8468,-0.8494,-0.851,-0.8529,-0.8558,-0.8567,-0.8596,-0.8607,-0.8624,-0.8646,-0.8647,-0.8667,-0.8678,-0.8699,-0.8706,-0.8737,-0.8742,-0.8748,-0.875,-0.8749,-0.8748,-0.8758,-0.8756,-0.8751,-0.8751,-0.875,-0.875,0,-0.8498,-0.851,-0.8543,-0.8566,-0.8572,-0.8593,-0.8613,-0.8631,-0.8641,-0.8668,-0.8675,-0.869,-0.8716,-0.8727,-0.8758,-0.8763,-0.8799,-0.8798,-0.8792,-0.8793,-0.8813,-0.8812,-0.8874,-0.8883,-0.8831,-0.8831,-0.8832,0,-0.8521,-0.8541,-0.8567,-0.8582,-0.8594,-0.8618,-0.8633,-0.8643,-0.8659,-0.8684,-0.87,-0.8726,-0.8747,-0.8788,-0.8802,-0.8827,-0.8827,-0.8847,-0.8831,-0.883,-0.883,-0.8829,-0.8832,-0.8851,-0.8851,-0.8852,-0.8852,0,-0.8562,-0.8567,-0.859,-0.8615,-0.8634,-0.8654,-0.8673,-0.8685,-0.8698,-0.8716,-0.8743,-0.876,-0.8793,-0.8819,-0.8845,-0.8856,-0.8857,-0.8857,-0.8863,-0.8863,-0.886,-0.8863,-0.8802,-0.8856,-0.8855,-0.8855,-0.8855,-0.8855,-0.859,-0.8609,-0.863,-0.8656,-0.8672,-0.8691,-0.871,-0.8723,-0.8746,-0.8774,-0.8778,-0.8807,-0.8828,-0.8862,-0.8875,-0.8899,-0.8894,-0.8902,-0.8905,-0.8907,-0.8909,-0.8855,-0.8903,-0.8903,-0.8903,-0.8903,-0.8903,0,-0.8632,-0.8647,-0.867,-0.8698,-0.8719,-0.8718,-0.874,-0.8757,-0.8783,-0.8802,-0.8824,-0.8856,-0.8882,-0.8898,-0.8925,-0.894,-0.8941,-0.8947,-0.8946,-0.895,-0.8911,-0.8904,-0.8946,-0.8946,-0.8946,-0.8946,-0.8946,-0.8946,-0.8657,-0.8689,-0.8697,-0.8738,-0.8752,-0.8781,-0.8794,-0.8812,-0.8828,-0.8864,-0.8886,-0.8896,-0.8915,-0.8943,-0.8967,-0.8972,-0.8982,-0.8988,-0.8992,-0.8956,-0.8952,-0.8948,-0.8941,-0.899,-0.899,-0.9029,-0.9029,-0.9029]}]]